Flag for U.S.A. Weather past 2 weeks in Vallejo, California, U.S.A.

Now
65 °F

Sunny.


Feels Like: 65 °F
Forecast: 60 / 83 °F
Wind: 5 mph from East

Location: Napa County Airport

Current Time: Jul 26, 2014 at 9:03:46 AM

Latest Report: Jul 26, 2014 at 7:54 AM


Visibility: 9 mi

Pressure: 29.90 "Hg

Humidity: 81%

Dew point: 59 °F

Location of VallejoLocation

Historic Weather in Vallejo — Graph

°F

Vallejo temperature yesterday

Maximum temperature yesterday: 95 °F (at 2:54 PM)
Minimum temperature yesterday: 53 °F (at 5:54 AM)
Average temperature yesterday: 73 °F

Past Weeks' High & Low Weather Summary

 TemperatureHumidityPressure
High95 °F (Jul 25, 2:54 PM)100% (Jul 20, 3:54 AM)30.10 "Hg (Jul 20, 3:54 AM)
Low50 °F (Jul 24, 5:54 AM)16% (Jul 25, 2:54 PM)29.78 "Hg (Jul 25, 4:54 PM)
Average66 °F75%29.94 "Hg
* Reported Jul 11 7:54 AM — Jul 26 7:54 AM, Vallejo, Weather by CustomWeather, © 2014

Note: Actual official high and low records may vary slightly from our data, if they occured in-between our weather recording intervals... More about our weather records

Advertising

Vallejo weather history for previous 24 hours

 ConditionsComfort  
Time TempWeatherWind HumidityBarometerVisibility
7:54 AM
Jul 26
65 °FSunny.5 mph81%29.90 "Hg9 mi
6:54 AM58 °FClear.5 mph93%29.88 "Hg8 mi
5:54 AM58 °FClear.5 mph93%29.86 "Hg10 mi
4:54 AM57 °FClear.5 mph93%29.86 "Hg10 mi
3:54 AM55 °FClear.3 mph93%29.85 "Hg10 mi
2:54 AM60 °FClear.3 mph90%29.85 "Hg10 mi
1:54 AM59 °FClear.3 mph87%29.85 "Hg10 mi
12:54 AM63 °FClear.7 mph84%29.85 "Hg10 mi
11:54 PM
Jul 25
62 °FClear.8 mph86%29.84 "Hg10 mi
10:54 PM66 °FClear.3 mph78%29.83 "Hg10 mi
9:54 PM65 °FClear.6 mph78%29.81 "Hg10 mi
8:54 PM72 °FSunny.3 mph64%29.80 "Hg10 mi
7:54 PM79 °FSunny.10 mph54%29.79 "Hg10 mi
6:54 PM85 °FSunny.8 mph45%29.78 "Hg10 mi
5:54 PM92 °FSunny.10 mph31%29.78 "Hg10 mi
4:54 PM94 °FSunny.14 mph27%29.78 "Hg10 mi
3:54 PM95 °FSunny.14 mph20%29.78 "Hg10 mi
2:54 PM95 °FSunny.12 mph16%29.80 "Hg10 mi
1:54 PM93 °FSunny.9 mph23%29.81 "Hg10 mi
12:54 PM88 °FSunny.7 mph29%29.83 "Hg10 mi
11:54 AM84 °FSunny.7 mph35%29.84 "Hg10 mi
10:54 AM80 °FSunny.6 mph38%29.85 "Hg10 mi
9:54 AM74 °FSunny.3 mph56%29.85 "Hg10 mi
Weather by CustomWeather, © 2014

See weather overviewHow to use our weather pages